Tracking 25703 objects as of 3-Jul-2022
HD Live streaming from Space Station
objects crossing your sky now

STARLINK-2511

Track STARLINK-2511 now!
10-day predictions
STARLINK-2511 is classified as:


NORAD ID: 48332
Int'l Code: 2021-036BJ
Perigee: 553.3 km
Apogee: 555.4 km
Inclination: 53.1 °
Period: 95.6 minutes
Semi major axis: 6925 km
RCS: Unknown
Launch date: April 29, 2021
Source: United States (US)
Launch site: AIR FORCE EASTERN TEST RANGE (AFETR)
aabbcc
Your satellite tracking list
Your tracking list is empty




NASA's NSSDC Master Catalog

Two Line Element Set (TLE):
1 48332U 21036BJ  22183.56441603  .00000089  00000-0  24841-4 0  9997
2 48332  53.0554  24.6021 0001555  73.0678 287.0481 15.06405392 65147
Source of the keplerian elements: AFSPC